Regional Weather Roundup
Issued by NWS Wilmington, NC

Home | Current Version | Previous Version | Text Only | Print | Product List | Glossary On
Versions: 1 2 3 4 5 6 7 8 9 10 11 12 13 14 15 16 17 18 19 20 21 22 23 24 25 26 27 28 29 30 31 32 33 34 35 36 37 38 39 40 41 42 43 44 45 46 47 48 49
000
ASUS42 KILM 210210
RWRILM
RWRILM
REGIONAL HOURLY WEATHER ROUNDUP
NATIONAL WEATHER SERVICE WILMINGTON NC
1000 PM EDT SAT SEP 20 2014

NOTE: "FAIR" INDICATES FEW OR NO CLOUDS BELOW 12,000 FEET WITH NO
SIGNIFICANT WEATHER AND/OR OBSTRUCTIONS TO VISIBILITY.

...............WFO WILMINGTON COUNTY WARNING AREA...............

......COASTAL NC AND SC COUNTIES......

CITY           SKY/WX    TMP DP  RH WIND       PRES   REMARKS
WILMINGTON     CLOUDY    71  69  93 N15       29.92F
SOUTHPORT      CLOUDY    70  67  92 N9        29.90F
N MYRTLE BEACH LGT RAIN  71  67  87 N7        29.92F
MYRTLE BEACH   DRIZZLE   72  64  78 N12       29.92F

......INLAND NC AND SC COUNTIES.......

CITY           SKY/WX    TMP DP  RH WIND       PRES   REMARKS
LUMBERTON      CLOUDY    72  62  71 NE7       29.96F
ELIZABETHTOWN  CLOUDY    71  65  83 CALM      29.96F
WHITEVILLE     CLOUDY    72  65  80 N3        29.94F
FLORENCE       CLOUDY    72  63  73 N7        29.97F
DARLINGTON     CLOUDY    70  61  73 N6        30.00F

....................REST OF NORTH CAROLINA......................

.........EASTERN NC.........

CITY           SKY/WX    TMP DP  RH WIND       PRES   REMARKS
CAPE HATTERAS  LGT RAIN  69  69 100 E8G17     29.95F
JACKSONVILLE   CLOUDY    70  64  83 N10       29.96S
MOREHEAD CITY  CLOUDY    71  69  93 N13       29.92F
KENANSVILLE    CLOUDY    70  66  87 N5        29.98F
NEW BERN       LGT RAIN  73  69  87 NE9       29.96F
ELIZABETH CITY CLOUDY    71  69  93 N8        30.00F

.........CENTRAL NC.........

CITY           SKY/WX    TMP DP  RH WIND       PRES   REMARKS
RALEIGH DURHAM MOCLDY    68  59  73 NE5       30.02F
ROCKY MOUNT    CLOUDY    70  65  84 NE5       30.01F
ROANOKE RAPIDS NOT AVBL
FAYETTEVILLE   CLOUDY    71  63  75 N7        29.98F
HOFFMAN        NOT AVBL

.........WESTERN NC.........

CITY           SKY/WX    TMP DP  RH WIND       PRES   REMARKS
CHARLOTTE      CLOUDY    68  58  70 N6        30.04S
GREENSBORO     MOCLDY    67  59  75 CALM      30.05S
HICKORY        NOT AVBL
BOONE          NOT AVBL
ASHEVILLE      NOT AVBL

.....................REST OF SOUTH CAROLINA.....................

.........EASTERN SC.........

CITY           SKY/WX    TMP DP  RH WIND       PRES   REMARKS
CHARLESTON     CLOUDY    74  63  68 N9        29.94F
BEAUFORT MCAS  CLOUDY    72  64  76 SW10      29.96S
HILTON HEAD    NOT AVBL

.........CENTRAL SC.........

CITY           SKY/WX    TMP DP  RH WIND       PRES   REMARKS
COLUMBIA       MOCLDY    73  59  61 N5        29.99F
ORANGEBURG     CLOUDY    72  62  71 N5        29.99R
SUMTER SHAW    CLOUDY    71  61  69 N9        29.98S

.........WESTERN SC.........

CITY           SKY/WX    TMP DP  RH WIND       PRES   REMARKS
GREENVILLE     NOT AVBL
ROCK HILL      MOCLDY    66  63  90 CALM      30.04S
ANDERSON       CLEAR     65  62  90 CALM      30.04S
CLEMSON        NOT AVBL
GREENWOOD      PTCLDY    66  61  84 CALM      30.04F


...................COASTAL AND OFFSHORE REPORTS..................

................LOCAL PIERS AND NC RESERVE................


STATION/POSITION TIME  SKY/WX   TEMP    WIND        PRES    VSBY
                                AIR SEA DIR/SP/G
                 (UTC)          (F)     (DEG/KT/KT) (MB)    (MI)
JOHNY MRCER PIER 0200            72 80   20/ 14/ 19 1012.4F
NC RESRV MASNBRO 0100            72      10/  5     1013.0S
OCEAN CREST PIER 0200            72 79  340/  8/ 14 1012.0F
SPRINGMAID  PIER 0200            71 79  360/  8/ 11 1013.2F


................COASTAL AND OFFSHORE BUOYS................


STATION/POSITION TIME  SKY/WX   TEMP    WIND        PRES    VSBY
                                AIR SEA DIR/SP/G
                 (UTC)          (F)     (DEG/KT/KT) (MB)    (MI)
DIMNDSHOAL 41025 0200            76      60/ 19/ 21 1013.0F
WVE H/P(F/S)=  7/10 WND WVE H/P(F/S)=  5/ 7 SWL H/P/D(F/S/D)=  5/ 60/10

CAPE LOOKOUT     0100            71      10/ 10/ 12 1013.4F
ONSLOW BAY 41036 0200            75 83   40/ 25/ 29 1011.6F
WVE H/P(F/S)=  6/10 WND WVE H/P(F/S)=  5/ 6 SWL H/P/D(F/S/D)=  3/ 90/10

5 WRITEBCH 41038 0100            72 80   20/ 21/ 29   N/A
MASONBORO  41110 0200               80                N/A
WVE H/P(F/S)=  6/ 6 WND WVE H/P(F/S)=  5/ 6 SWL H/P/D(F/S/D)=  2/110/11

WILM HARBR 41108 0200               80                N/A
WVE H/P(F/S)=  5/ 4 WND WVE H/P(F/S)=  5/ 4

27WRITEBCH 41037 0100            73 82   40/ 25/ 31 1012.5R
FRYING PAN 41013 NOT AVBL
SUNST NRSH 41024 0100            73      30/ 16/ 17 1013.0F
CAPRS NRSH 41029 0100            72      30/ 16/ 17   N/A
EDISTO     41004 0200            77 82   10/ 25/ 29 1010.5F
WVE H/P(F/S)=  8/ 8 WND WVE H/P(F/S)=  7/ 7 SWL H/P/D(F/S/D)=  5/ 8



..........OFFSHORE BUOYS BEYOND 100 NM OFFSHORE...........
.....IN A TRIANGLE---HAT TO BERMUDA TO BAHAMAS TO HAT.....


STATION/POSITION TIME  SKY/WX   TEMP    WIND        PRES    VSBY
                                AIR SEA DIR/SP/G
                 (UTC)          (F)     (DEG/KT/KT) (MB)    (MI)
150E HAT   41001 NOT AVBL
W BERMUDA  41048 0121            81 81  160/ 16/ 19 1017.4S
WVE H/P(F/S)=  6/ 9 WND WVE H/P(F/S)=  5/ 6 SWL H/P/D(F/S/D)=  5/ 30/ 9

ATLANTIC S 41049 0136            83 85   90/ 12/ 16 1021.1R
WVE H/P(F/S)=  4/ 9 WND WVE H/P(F/S)=  3/ 6 SWL H/P/D(F/S/D)=  3/110/ 9

E BAHAMAS  41046 0150            84 84  120/ 14/ 17 1017.4R
WVE H/P(F/S)=  4/ 6 WND WVE H/P(F/S)=  3/ 6 SWL H/P/D(F/S/D)=  3/100/ 7

NE BAHAMAS 41047 0124            82 83  170/ 16/ 17 1016.9
WVE H/P(F/S)=  4/ 8 WND WVE H/P(F/S)=  3/ 5 SWL H/P/D(F/S/D)=  2/120/ 8

120E CANVRL41010 0200            81 84  240/ 17/ 19 1011.3R
WVE H/P(F/S)=  6/ 6 WND WVE H/P(F/S)=  5/ 6 SWL H/P/D(F/S/D)=  3/ 10/ 8


END


USA.gov is the U.S. government's official web portal to all federal, state and local government web resources and services.